CW1839 Weather Reports


Display with metric or nautical units.
time (UTC)temp
F
wind
direction
speed
MPH
gust
MPH
rain 1hr
in
rain 24hr
in
rain mn
in
humidity
%
barometer
mb
20210414154516 57 110 3.0 0.0 0.00 0.00 0.00 71 1013.6
20210414151526 57 104 3.0 0.0 0.00 0.00 0.00 70 1013.5
20210414140105 60 75 5.0 0.0 0.00 0.00 0.00 64 1013.4
20210414124517 61 95 6.0 0.0 0.00 0.00 0.00 57 1013.6
20210414123123 63 82 4.0 0.0 0.00 0.00 0.00 55 1013.6
20210414121510 63 89 3.0 0.0 0.00 0.00 0.00 55 1013.7
20210414103022 61 120 3.0 0.0 0.00 0.00 0.00 47 1014.5
20210414101522 61 130 2.0 0.0 0.00 0.00 0.00 49 1014.5
20210414100044 61 82 3.0 0.0 0.00 0.00 0.00 49 1014.6
20210414094525 61 103 5.0 0.0 0.00 0.00 0.00 49 1014.7
20210414083036 59 104 0.0 0.0 0.00 0.00 0.00 51 1014.4
20210414073024 56 102 0.0 0.0 0.00 0.00 0.00 61 1014.3
20210414071519 55 23 0.0 0.0 0.00 0.00 0.00 62 1014.1
20210414041527 49 328 0.0 0.0 0.00 0.00 0.00 80 1012.7
20210414033343 49 328 0.0 0.0 0.00 0.00 0.00 78 1012.6
20210414024529 50 328 0.0 0.0 0.00 0.00 0.00 76 1012.7
20210414021525 50 328 0.0 0.0 0.00 0.00 0.00 76 1012.6
20210414011512 51 328 0.0 0.0 0.00 0.00 0.00 74 1012.7
20210414004528 51 288 0.0 0.0 0.00 0.00 0.00 74 1013.0
20210414000043 52 288 0.0 0.0 0.00 0.00 0.00 72 1013.2
20210413234520 52 288 0.0 0.0 0.00 0.00 0.00 71 1013.2
20210413221519 54 275 0.0 0.0 0.00 0.00 0.00 70 1013.4
20210413211522 54 288 0.0 0.0 0.00 0.00 0.00 76 1013.4
20210413200258 54 329 0.0 0.0 0.00 0.00 0.00 70 1013.0
20210413194516 54 329 0.0 0.0 0.00 0.00 0.00 69 1012.7
20210413191526 55 323 0.0 0.0 0.00 0.00 0.00 70 1012.5
20210413184511 55 346 1.0 0.0 0.00 0.00 0.00 70 1012.1
20210413181537 56 354 2.0 0.0 0.00 0.00 0.00 69 1011.7
20210413161513 64 68 3.0 0.0 0.00 0.00 0.00 61 1011.3